�������l�o���
Date,Time,MP-1(��Sv/h),MP-2(��Sv/h),MP-3(��Sv/h),MP-4(��Sv/h),MP-5(��Sv/h),MP-6(��Sv/h),MP-7(��Sv/h),MP-8(��Sv/h),����,����(m/s),���J
2023/11/21,00:00,0.517,0.782,0.485,0.978,0.700,0.312,0.563,0.522,���k��,2.6,��
2023/11/21,00:10,0.516,0.781,0.484,0.978,0.699,0.313,0.563,0.524,���쐼,1.9,��
2023/11/21,00:20,0.515,0.780,0.486,0.980,0.703,0.312,0.561,0.525,��,2.2,��
2023/11/21,00:30,0.515,0.781,0.484,0.979,0.702,0.313,0.563,0.525,���k��,3.9,��
2023/11/21,00:40,0.515,0.780,0.485,0.979,0.701,0.314,0.563,0.525,���k��,2.3,��
2023/11/21,00:50,0.515,0.782,0.485,0.977,0.700,0.314,0.562,0.526,���k��,3.4,��
2023/11/21,01:00,0.515,0.781,0.485,0.979,0.702,0.313,0.562,0.525,���k��,2.8,��
2023/11/21,01:10,0.515,0.781,0.485,0.979,0.700,0.313,0.564,0.524,�k��,2.5,��
2023/11/21,01:20,0.516,0.781,0.487,0.978,0.699,0.313,0.562,0.523,���k��,2.9,��
2023/11/21,01:30,0.515,0.781,0.485,0.982,0.702,0.313,0.563,0.525,��,1.9,��
2023/11/21,01:40,0.515,0.780,0.485,0.981,0.700,0.312,0.562,0.525,��,1.5,��
2023/11/21,01:50,0.512,0.781,0.485,0.978,0.700,0.312,0.562,0.525,�쐼,1.5,��
2023/11/21,02:00,0.514,0.782,0.484,0.983,0.701,0.313,0.563,0.524,���쐼,1.5,��
2023/11/21,02:10,0.514,0.783,0.485,0.980,0.701,0.312,0.562,0.525,��,1.5,��
2023/11/21,02:20,0.515,0.780,0.485,0.977,0.700,0.313,0.562,0.524,���쐼,1.2,��
2023/11/21,02:30,0.516,0.781,0.484,0.979,0.699,0.312,0.562,0.525,��쐼,1.9,��
2023/11/21,02:40,0.514,0.782,0.486,0.979,0.699,0.313,0.563,0.524,���쐼,2.0,��
2023/11/21,02:50,0.514,0.781,0.484,0.980,0.698,0.312,0.561,0.525,��,2.3,��
2023/11/21,03:00,0.513,0.782,0.484,0.980,0.700,0.312,0.561,0.525,���k��,2.3,��
2023/11/21,03:10,0.516,0.780,0.484,0.977,0.700,0.313,0.563,0.525,�k��,1.5,��
2023/11/21,03:20,0.515,0.780,0.485,0.980,0.700,0.312,0.563,0.525,�k��,1.9,��
2023/11/21,03:30,0.514,0.779,0.484,0.981,0.700,0.312,0.561,0.524,���k��,2.6,��
2023/11/21,03:40,0.516,0.782,0.485,0.980,0.700,0.313,0.562,0.525,��,2.3,��
2023/11/21,03:50,0.514,0.781,0.484,0.979,0.700,0.313,0.562,0.524,���k��,2.3,��
2023/11/21,04:00,0.514,0.781,0.486,0.980,0.698,0.313,0.561,0.524,���k��,2.3,��
2023/11/21,04:10,0.513,0.780,0.483,0.979,0.700,0.313,0.562,0.526,��,2.6,��
2023/11/21,04:20,0.514,0.780,0.484,0.978,0.701,0.312,0.561,0.524,��,2.0,��
2023/11/21,04:30,0.516,0.781,0.485,0.982,0.700,0.313,0.562,0.524,��,2.5,��
2023/11/21,04:40,0.514,0.782,0.484,0.978,0.702,0.312,0.560,0.525,��,3.2,��
2023/11/21,04:50,0.513,0.781,0.485,0.981,0.701,0.311,0.562,0.524,��,4.0,��
2023/11/21,05:00,0.515,0.781,0.484,0.980,0.701,0.312,0.563,0.524,��,3.2,��
2023/11/21,05:10,0.515,0.780,0.485,0.978,0.700,0.312,0.562,0.525,���쐼,4.1,��
2023/11/21,05:20,0.514,0.781,0.483,0.978,0.699,0.311,0.561,0.525,��,4.3,��
2023/11/21,05:30,0.514,0.780,0.485,0.981,0.698,0.314,0.562,0.524,��,4.1,��
2023/11/21,05:40,0.512,0.779,0.483,0.979,0.698,0.313,0.562,0.523,��,4.7,��
2023/11/21,05:50,0.515,0.781,0.484,0.979,0.698,0.312,0.562,0.524,��,4.1,��
2023/11/21,06:00,0.514,0.780,0.485,0.979,0.700,0.311,0.560,0.526,���쐼,2.6,��
2023/11/21,06:10,0.514,0.781,0.486,0.978,0.701,0.312,0.561,0.525,��,2.8,��
2023/11/21,06:20,0.514,0.781,0.484,0.978,0.702,0.313,0.561,0.524,��,2.5,��
2023/11/21,06:30,0.513,0.779,0.484,0.979,0.699,0.313,0.561,0.524,��,2.3,��
2023/11/21,06:40,0.513,0.782,0.483,0.979,0.698,0.313,0.561,0.525,��,3.2,��
2023/11/21,06:50,0.514,0.780,0.484,0.980,0.699,0.311,0.560,0.523,���k��,4.0,��
2023/11/21,07:00,0.512,0.780,0.485,0.978,0.700,0.312,0.561,0.524,���k��,3.2,��
2023/11/21,07:10,0.513,0.782,0.483,0.978,0.698,0.313,0.563,0.525,�k�k��,3.1,��
2023/11/21,07:20,0.514,0.780,0.485,0.980,0.699,0.313,0.562,0.525,�k�k��,2.8,��
2023/11/21,07:30,0.515,0.780,0.484,0.978,0.701,0.312,0.562,0.523,���k��,3.2,��
2023/11/21,07:40,0.513,0.781,0.485,0.978,0.700,0.311,0.563,0.525,�k��,5.1,��
2023/11/21,07:50,0.514,0.782,0.486,0.979,0.701,0.312,0.562,0.525,�k��,4.7,��
2023/11/21,08:00,0.514,0.782,0.485,0.978,0.700,0.313,0.562,0.524,�k��,4.7,��
2023/11/21,08:10,0.515,0.784,0.483,0.979,0.698,0.314,0.562,0.526,�k��,2.8,��
2023/11/21,08:20,0.514,0.782,0.486,0.981,0.700,0.313,0.562,0.525,�k�k��,1.9,��
2023/11/21,08:30,0.516,0.780,0.486,0.980,0.700,0.312,0.562,0.526,���k��,1.5,��
2023/11/21,08:40,0.514,0.782,0.486,0.980,0.701,0.314,0.562,0.525,��,1.4,��
2023/11/21,08:50,0.514,0.782,0.485,0.980,0.700,0.313,0.563,0.524,�쐼,1.2,��
2023/11/21,09:00,0.513,0.782,0.485,0.979,0.701,0.312,0.563,0.525,��쐼,1.2,��
2023/11/21,09:10,0.515,0.780,0.484,0.977,0.698,0.312,0.563,0.527,��,1.5,��
2023/11/21,09:20,0.513,0.782,0.485,0.978,0.700,0.313,0.562,0.525,�쓌,2.0,��
2023/11/21,09:30,0.517,0.781,0.486,0.978,0.700,0.314,0.562,0.526,��쓌,2.2,��
2023/11/21,09:40,0.516,0.780,0.485,0.980,0.701,0.314,0.561,0.525,��쓌,2.6,��
2023/11/21,09:50,0.517,0.781,0.486,0.981,0.701,0.313,0.562,0.524,��쓌,2.5,��
2023/11/21,10:00,0.516,0.779,0.484,0.980,0.700,0.314,0.560,0.526,��쓌,1.9,��
2023/11/21,10:10,0.516,0.782,0.487,0.980,0.702,0.313,0.561,0.524,�쓌,2.6,��
2023/11/21,10:20,0.515,0.779,0.486,0.980,0.701,0.314,0.560,0.525,��쓌,3.3,��
2023/11/21,10:30,0.514,0.779,0.487,0.981,0.701,0.314,0.563,0.526,��쓌,3.8,��
2023/11/21,10:40,0.516,0.779,0.487,0.980,0.702,0.312,0.563,0.524,��쓌,4.8,��
2023/11/21,10:50,0.517,0.781,0.486,0.982,0.702,0.312,0.563,0.526,��쓌,4.7,��
2023/11/21,11:00,0.515,0.781,0.488,0.980,0.701,0.313,0.562,0.525,��쓌,5.4,��
2023/11/21,11:10,0.515,0.780,0.485,0.981,0.699,0.312,0.562,0.525,��쓌,5.7,��
2023/11/21,11:20,0.516,0.782,0.487,0.982,0.701,0.312,0.562,0.525,��쓌,5.5,��
2023/11/21,11:30,0.516,0.781,0.488,0.980,0.702,0.311,0.562,0.526,��쓌,4.6,��
2023/11/21,11:40,0.515,0.783,0.485,0.980,0.701,0.315,0.563,0.526,��쓌,4.4,��
2023/11/21,11:50,0.515,0.782,0.486,0.982,0.699,0.312,0.562,0.526,��쓌,4.4,��
2023/11/21,12:00,0.514,0.781,0.488,0.984,0.698,0.313,0.562,0.526,��쓌,5.6,��
2023/11/21,12:10,0.515,0.782,0.486,0.982,0.700,0.314,0.563,0.527,��쓌,7.8,��
2023/11/21,12:20,0.515,0.781,0.487,0.982,0.700,0.316,0.564,0.525,��쓌,6.7,��
2023/11/21,12:30,0.517,0.782,0.486,0.980,0.702,0.315,0.561,0.524,��쓌,7.9,��
2023/11/21,12:40,0.516,0.780,0.487,0.981,0.701,0.315,0.562,0.524,��쓌,7.3,��
2023/11/21,12:50,0.515,0.782,0.487,0.982,0.701,0.316,0.563,0.524,��,6.8,��
2023/11/21,13:00,0.515,0.784,0.487,0.980,0.700,0.315,0.563,0.523,��,7.7,��
2023/11/21,13:10,0.516,0.783,0.487,0.983,0.701,0.314,0.563,0.525,��,7.5,��
2023/11/21,13:20,0.516,0.781,0.486,0.980,0.703,0.315,0.564,0.524,��,6.6,��
2023/11/21,13:30,0.515,0.781,0.488,0.979,0.700,0.315,0.565,0.525,��,7.3,��
2023/11/21,13:40,0.515,0.783,0.487,0.980,0.700,0.314,0.566,0.524,��,7.2,��
2023/11/21,13:50,0.515,0.782,0.486,0.983,0.700,0.313,0.564,0.525,��,6.7,��
2023/11/21,14:00,0.515,0.782,0.486,0.982,0.702,0.312,0.565,0.526,��쓌,9.0,��
2023/11/21,14:10,0.516,0.783,0.487,0.983,0.702,0.311,0.565,0.524,��쓌,9.9,��
2023/11/21,14:20,0.516,0.783,0.485,0.980,0.703,0.314,0.564,0.524,��쓌,8.8,��
2023/11/21,14:30,0.517,0.783,0.485,0.982,0.702,0.314,0.564,0.525,��쓌,9.9,��
2023/11/21,14:40,0.517,0.782,0.484,0.982,0.701,0.315,0.566,0.523,��,8.0,��
2023/11/21,14:50,0.516,0.782,0.486,0.983,0.699,0.315,0.563,0.524,��,7.9,��
2023/11/21,15:00,0.516,0.783,0.485,0.983,0.702,0.315,0.563,0.523,��,8.1,��
2023/11/21,15:10,0.517,0.785,0.488,0.981,0.702,0.312,0.565,0.523,��,6.2,��
2023/11/21,15:20,0.516,0.785,0.486,0.982,0.702,0.313,0.565,0.525,��,7.0,��
2023/11/21,15:30,0.516,0.786,0.487,0.984,0.701,0.314,0.566,0.526,��쐼,6.7,��
2023/11/21,15:40,0.516,0.789,0.487,0.980,0.702,0.316,0.566,0.528,��쐼,6.6,��
2023/11/21,15:50,0.515,0.787,0.487,0.980,0.703,0.315,0.566,0.526,��쐼,6.9,��
2023/11/21,16:00,0.515,0.789,0.488,0.981,0.703,0.314,0.565,0.527,��쐼,7.2,��
2023/11/21,16:10,0.515,0.785,0.488,0.981,0.702,0.315,0.565,0.526,�쐼,6.2,��
2023/11/21,16:20,0.515,0.788,0.487,0.978,0.702,0.315,0.563,0.527,��쐼,5.8,��
2023/11/21,16:30,0.517,0.786,0.489,0.982,0.700,0.315,0.566,0.528,��쐼,5.7,��
2023/11/21,16:40,0.517,0.788,0.489,0.980,0.700,0.316,0.565,0.527,��쐼,7.1,��
2023/11/21,16:50,0.518,0.787,0.487,0.981,0.703,0.316,0.564,0.526,��쐼,7.5,��
2023/11/21,17:00,0.519,0.787,0.488,0.984,0.705,0.316,0.565,0.526,��쐼,7.7,��
2023/11/21,17:10,0.519,0.786,0.488,0.981,0.704,0.315,0.564,0.525,��쐼,7.8,��
2023/11/21,17:20,0.518,0.784,0.488,0.982,0.704,0.315,0.565,0.527,��쐼,8.6,��
2023/11/21,17:30,0.520,0.787,0.487,0.982,0.704,0.316,0.565,0.527,�쐼,8.3,��
2023/11/21,17:40,0.519,0.786,0.488,0.983,0.704,0.313,0.565,0.526,�쐼,8.1,��
2023/11/21,17:50,0.519,0.787,0.488,0.984,0.704,0.316,0.565,0.526,�쐼,7.8,��
2023/11/21,18:00,0.518,0.788,0.489,0.982,0.706,0.315,0.567,0.526,�쐼,8.5,��
2023/11/21,18:10,0.517,0.786,0.488,0.983,0.706,0.315,0.567,0.526,�쐼,9.4,��
2023/11/21,18:20,0.518,0.785,0.489,0.982,0.704,0.314,0.565,0.527,�쐼,10.5,��
2023/11/21,18:30,0.518,0.786,0.487,0.982,0.705,0.315,0.567,0.525,�쐼,9.0,��
2023/11/21,18:40,0.520,0.787,0.489,0.983,0.705,0.315,0.566,0.526,�쐼,9.7,��
2023/11/21,18:50,0.518,0.787,0.488,0.983,0.705,0.316,0.564,0.527,�쐼,10.2,��
2023/11/21,19:00,0.518,0.786,0.490,0.983,0.704,0.314,0.566,0.526,�쐼,8.4,��
2023/11/21,19:10,0.517,0.787,0.489,0.984,0.703,0.316,0.568,0.526,�쐼,8.8,��
2023/11/21,19:20,0.518,0.786,0.489,0.985,0.703,0.316,0.567,0.527,��쐼,7.7,��
2023/11/21,19:30,0.518,0.786,0.488,0.984,0.704,0.314,0.566,0.528,��쐼,7.6,��
2023/11/21,19:40,0.518,0.786,0.489,0.983,0.706,0.315,0.567,0.527,��쐼,9.4,��
2023/11/21,19:50,0.519,0.786,0.488,0.982,0.705,0.316,0.566,0.527,��쐼,8.3,��
2023/11/21,20:00,0.518,0.783,0.487,0.983,0.705,0.315,0.566,0.528,��쐼,8.3,��
2023/11/21,20:10,0.517,0.786,0.490,0.984,0.705,0.315,0.565,0.527,��쐼,7.0,��
2023/11/21,20:20,0.518,0.786,0.488,0.982,0.705,0.315,0.566,0.526,��쐼,7.8,��
2023/11/21,20:30,0.520,0.785,0.489,0.983,0.705,0.314,0.566,0.527,��쐼,5.1,��
2023/11/21,20:40,0.517,0.786,0.488,0.983,0.706,0.314,0.565,0.528,��쐼,4.7,��
2023/11/21,20:50,0.518,0.787,0.488,0.982,0.705,0.314,0.566,0.526,��쐼,5.5,��
2023/11/21,21:00,0.519,0.787,0.488,0.983,0.704,0.315,0.565,0.526,��,5.7,��
2023/11/21,21:10,0.518,0.785,0.488,0.983,0.706,0.315,0.566,0.526,��,4.9,��
2023/11/21,21:20,0.518,0.786,0.487,0.981,0.703,0.315,0.566,0.526,��쐼,5.1,��
2023/11/21,21:30,0.517,0.785,0.486,0.984,0.703,0.314,0.564,0.526,��쐼,5.0,��
2023/11/21,21:40,0.517,0.785,0.487,0.984,0.705,0.314,0.564,0.526,��쐼,5.5,��
2023/11/21,21:50,0.519,0.786,0.486,0.982,0.705,0.316,0.564,0.527,��쐼,6.1,��
2023/11/21,22:00,0.517,0.784,0.487,0.983,0.705,0.314,0.565,0.526,��쐼,6.8,��
2023/11/21,22:10,0.517,0.786,0.488,0.984,0.705,0.315,0.564,0.526,�쐼,6.9,��
2023/11/21,22:20,0.519,0.784,0.488,0.983,0.704,0.316,0.565,0.528,�쐼,7.7,��
2023/11/21,22:30,0.517,0.785,0.486,0.982,0.705,0.316,0.564,0.525,�쐼,8.5,��
2023/11/21,22:40,0.517,0.784,0.487,0.985,0.705,0.315,0.565,0.525,�쐼,9.3,��
2023/11/21,22:50,0.518,0.786,0.487,0.986,0.704,0.315,0.565,0.527,���쐼,10.0,��
2023/11/21,23:00,0.518,0.786,0.487,0.984,0.705,0.315,0.564,0.526,���쐼,10.3,��
2023/11/21,23:10,0.518,0.785,0.488,0.982,0.704,0.314,0.566,0.529,���쐼,9.0,��
2023/11/21,23:20,0.516,0.784,0.486,0.984,0.704,0.316,0.565,0.525,���쐼,6.7,��
2023/11/21,23:30,0.518,0.784,0.487,0.983,0.703,0.315,0.566,0.526,�쐼,5.4,��
2023/11/21,23:40,0.518,0.785,0.487,0.984,0.705,0.315,0.565,0.525,�쐼,5.6,��
2023/11/21,23:50,0.518,0.785,0.488,0.982,0.705,0.315,0.567,0.527,�쐼,4.4,��
